Simultaneous Nadir Overpasses (SNOs) Predictions

Prediction of SNOs between GOES-16 and AQUA Satellite Orbit:

Table of predicted SNOs for the next 14.0 days since TLE Epoch: 12/29/2017
Index Date Time (GOES-16) GOES-16 Lat,Lon AQUA Lat,Lon Distance(km) Time Diff (sec)
1 12/31/2017 06:29:40 0.02, -75.17 -0.25, -73.86 148.01 80
2 12/31/2017 18:51:03 -0.02, -75.19 -0.86, -79.05 439.33 80
3 01/02/2018 06:17:30 0.03, -75.16 -0.90, -70.91 483.86 80
4 01/02/2018 18:41:33 -0.03, -75.19 -0.21, -76.10 103.37 80
5 01/04/2018 18:26:42 -0.03, -75.19 0.39, -73.14 233.24 80
6 01/05/2018 06:50:38 0.04, -75.17 0.71, -78.29 355.79 80
7 01/07/2018 06:38:27 0.04, -75.18 0.10, -75.33 18.41 80
8 01/09/2018 06:23:37 0.04, -75.20 -0.57, -72.38 320.37 80
9 01/09/2018 18:47:41 -0.04, -75.23 -0.54, -77.57 266.20 80
10 01/11/2018 18:32:50 -0.04, -75.26 0.08, -74.61 73.13 80




NCC Satellite Simultaneous Nadir Overpasses (SNOs) Prediction Service
